[[{"header":{"parameterUnit":"m.s-1","parameterCategory":2,"la1":30.2991,"la2":30.254,"lo1":-89.0895,"lo2":-89.0444,"dy":0.0017,"dx":0.0017,"nx":28,"ny":28,"refTime":"2024-06-21T03:00:00:Z","depth":"0","parameterNumber":2,"parameterNumberName":"U-component_of_CURRENTS"},"data":[0,0,0,0,0,0,0,0,0,0,0,0,0,0,0,0,0,0,0,0,0,0,0,0,0,0,0,0,0,0,0,0,0,0,0,0,0,0,0,0,0,0,0,0,0,0,0,0,0,0,0,0,0,0,0,0,0,0,0.2755,0.2757,0,0.2908,0.291,0.2911,0.2959,0.2958,0.2957,0.2957,0.3039,0.3041,0.3044,0,0,0,0,0,0,0,0,0,0,0,0,0,0.255,0.2553,0.2755,0.2757,0.2759,0.2908,0.291,0.2912,0.2959,0.2958,0.2957,0.2957,0.3038,0.3041,0.3044,0,0,0,0,0,0,0,0,0,0,0,0,0,0.2662,0.2554,0.2754,0.2802,0.2808,0.2908,0.291,0.2912,0.2959,0.2958,0.2957,0.2956,0.3037,0.3041,0.3044,0.3085,0,0,0.3057,0.3058,0,0,0,0,0,0,0,0,0.2655,0.2669,0.2793,0.2799,0.2806,0.2916,0.2868,0.2967,0.2959,0.2899,0.2957,0.2956,0.2993,0.3001,0.3029,0.3089,0.3092,0.3057,0.3059,0.3061,0.3062,0,0,0,0,0,0,0,0.2647,0.2663,0.2813,0.2795,0.2803,0.2832,0.2847,0.2887,0.2945,0.2904,0.2909,0.293,0.2995,0.3025,0.3031,0.3094,0.3057,0.306,0.3063,0.3065,0.3219,0.322,0,0,0,0,0,0,0.2633,0.2656,0.2808,0.2818,0.273,0.2837,0.2853,0.2879,0.2947,0.2958,0.293,0.2931,0.3018,0.3026,0.3034,0.3126,0.3061,0.3065,0.3067,0.3217,0.3219,0.3221,0,0,0,0,0,0,0.2628,0.2645,0.2802,0.2742,0.2764,0.2841,0.2871,0.2883,0.2914,0.2968,0.2976,0.2949,0.3018,0.3028,0.3082,0.3127,0.3067,0.307,0.3215,0.3217,0.322,0.3284,0,0,0,0,0,0,0.2621,0.2642,0.2661,0.2741,0.2767,0.2862,0.2872,0.2886,0.2929,0.2932,0.2987,0.2994,0.3018,0.3076,0.3086,0.3132,0.3073,0.3213,0.3216,0.3219,0.328,0.3289,0.3296,0,0,0,0,0,0.2613,0.2645,0.2661,0.268,0.2789,0.2863,0.2879,0.2929,0.2931,0.2951,0.2992,0.2992,0.3103,0.3081,0.3093,0.314,0.3211,0.3215,0.3219,0.3276,0.3287,0.3296,0,0,0,0,0,0,0.2571,0.2656,0.2675,0.2732,0.2791,0.2872,0.2906,0.293,0.2981,0.2983,0.3017,0.3028,0.3093,0.3104,0.3078,0.3192,0.3156,0.3162,0.3196,0.3206,0.3214,0.3242,0.3077,0,0,0,0,0,0.2569,0.2615,0.269,0.2738,0.2766,0.2832,0.2869,0.2901,0.2957,0.2979,0.3021,0.3066,0.312,0.3149,0.3192,0.3255,0.3295,0.3291,0.3299,0.3306,0.3336,0.3452,0.3474,0.3233,0.3233,0.3233,0,0,0.257,0.2621,0.2649,0.2731,0.2782,0.2848,0.2852,0.2912,0.2969,0.2979,0.3062,0.3094,0.3141,0.3218,0.3248,0.3232,0.3388,0.3311,0.3316,0.3343,0.3458,0.3482,0.3503,0.3236,0.3235,0.3235,0,0,0.2603,0.2635,0.2688,0.2737,0.2814,0.2858,0.2871,0.2953,0.2986,0.3064,0.3091,0.3158,0.3226,0.3291,0.3326,0.3404,0.3423,0.3399,0.3474,0.3585,0.3607,0.3627,0.3677,0.3701,0.3408,0.3408,0.3408,0,0.2606,0.2676,0.2714,0.2778,0.2827,0.2862,0.2929,0.2977,0.3065,0.3123,0.3093,0.3257,0.3276,0.3412,0.343,0.3428,0.347,0.3432,0.3599,0.3619,0.3638,0.3686,0.3712,0.3412,0.3412,0.3411,0.3411,0,0.2686,0.2737,0.277,0.2864,0.2918,0.2974,0.3044,0.3103,0.3138,0.3204,0.3327,0.3368,0.3477,0.3481,0.3477,0.3626,0.3602,0.3593,0.3578,0.3667,0.371,0.3736,0.3417,0.3416,0.3415,0.3414,0,0,0.2714,0.2808,0.2821,0.2865,0.2962,0.3016,0.3115,0.3232,0.3317,0.3389,0.3514,0.36,0.3632,0.3673,0.3684,0.3763,0.39,0.3731,0.3735,0.3787,0.4116,0.408,0.4103,0.3925,0.393,0.3935,0.4082,0,0.2768,0.2868,0.2917,0.302,0.3075,0.3144,0.3235,0.3343,0.3424,0.3546,0.3625,0.3728,0.3702,0.3744,0.3836,0.3889,0.3976,0.3859,0.4018,0.4023,0.3986,0.4136,0.4062,0.4188,0.4106,0.4111,0.4114,0,0.2832,0.2891,0.2982,0.3089,0.3125,0.3196,0.3353,0.344,0.3616,0.3679,0.3821,0.3875,0.4023,0.3954,0.4156,0.4084,0.4117,0.4141,0.4148,0.4119,0.4037,0.4092,0.4237,0.4184,0.4152,0.4149,0.4147,0,0.2813,0.2935,0.2997,0.3036,0.3169,0.324,0.3324,0.3493,0.3579,0.3769,0.3864,0.4039,0.4132,0.4233,0.4299,0.4242,0.449,0.4419,0.4424,0.4418,0.4393,0.4377,0.4519,0.4577,0.4577,0.4576,0.4576,0,0.2837,0.2888,0.2989,0.3025,0.3123,0.323,0.3355,0.3471,0.3642,0.3769,0.3927,0.4059,0.421,0.4361,0.4384,0.4509,0.4583,0.4487,0.449,0.4406,0.439,0.4369,0.4298,0.4582,0.4581,0.4579,0.4579,0,0.2787,0.2853,0.2925,0.3059,0.3105,0.3171,0.3333,0.3425,0.3609,0.3782,0.3847,0.4115,0.4324,0.4459,0.4628,0.4628,0.4616,0.4732,0.4594,0.4578,0.449,0.4422,0.4339,0.4206,0.4767,0.4767,0.4768,0,0.2764,0.2792,0.291,0.2947,0.3002,0.311,0.3185,0.3371,0.3477,0.3806,0.389,0.4173,0.4362,0.4632,0.4705,0.4809,0.465,0.4758,0.4642,0.4532,0.446,0.4209,0.4082,0.4616,0.4615,0.4614,0.4614,0,0.271,0.2741,0.2789,0.2866,0.2938,0.3023,0.3157,0.3232,0.3473,0.366,0.392,0.4105,0.4427,0.4561,0.4731,0.4759,0.4561,0.4743,0.4707,0.4441,0.4105,0.3961,0.442,0.4607,0.4608,0.4608,0.4609,0.4609,0.2643,0.2654,0.2711,0.2787,0.2852,0.2935,0.2979,0.3142,0.3314,0.3581,0.3818,0.4071,0.4392,0.4647,0.4642,0.465,0.4509,0.4571,0.4522,0.4294,0.41,0.4517,0.4654,0.4655,0.4656,0.4657,0.4657,0,0.2581,0.26,0.2641,0.272,0.2751,0.2831,0.2953,0.2994,0.315,0.3451,0.368,0.4041,0.4248,0.4437,0.46,0.4493,0.4228,0.4392,0.4067,0.397,0.4466,0.4399,0.4396,0.4396,0.4396,0.4396,0.4396,0.4396,0.2545,0.2555,0.2591,0.2617,0.2657,0.2676,0.272,0.2806,0.2984,0.325,0.3479,0.371,0.4128,0.4469,0.4489,0.4382,0.4046,0.3888,0.3796,0.4234,0.4246,0.4258,0.4185,0.4136,0.4136,0.3175,0.3169,0.3163]},{"header":{"parameterUnit":"m.s-1","parameterCategory":2,"la1":30.2991,"la2":30.254,"lo1":-89.0895,"lo2":-89.0444,"dy":0.0017,"dx":0.0017,"nx":28,"ny":28,"refTime":"2024-06-21T03:00:00:Z","depth":"0","parameterNumber":3,"parameterNumberName":"V-component_of_CURRENTS"},"data":[0,0,0,0,0,0,0,0,0,0,0,0,0,0,0,0,0,0,0,0,0,0,0,0,0,0,0,0,0,0,0,0,0,0,0,0,0,0,0,0,0,0,0,0,0,0,0,0,0,0,0,0,0,0,0,0,0,0,-0.0357,-0.0357,0,-0.0373,-0.0373,-0.0373,-0.0454,-0.0455,-0.0457,-0.0459,-0.0435,-0.0433,-0.043,0,0,0,0,0,0,0,0,0,0,0,0,0,-0.0451,-0.0449,-0.0357,-0.0357,-0.0357,-0.0373,-0.0373,-0.0373,-0.0453,-0.0456,-0.0458,-0.046,-0.0436,-0.0433,-0.043,0,0,0,0,0,0,0,0,0,0,0,0,0,-0.0433,-0.0448,-0.0357,-0.0399,-0.0403,-0.0373,-0.0373,-0.0373,-0.0453,-0.0456,-0.0458,-0.0461,-0.0437,-0.0433,-0.043,-0.0351,0,0,-0.0419,-0.0417,0,0,0,0,0,0,0,0,-0.0434,-0.043,-0.0392,-0.0396,-0.04,-0.0414,-0.0398,-0.0364,-0.0452,-0.0434,-0.0459,-0.0462,-0.0422,-0.042,-0.0417,-0.035,-0.0349,-0.0418,-0.0416,-0.0415,-0.0414,0,0,0,0,0,0,0,-0.0435,-0.043,-0.0363,-0.0392,-0.0397,-0.0436,-0.0436,-0.0392,-0.0411,-0.0436,-0.0442,-0.0442,-0.0424,-0.0421,-0.0417,-0.0349,-0.0419,-0.0415,-0.0413,-0.0412,-0.0259,-0.0257,0,0,0,0,0,0,-0.0426,-0.043,-0.0363,-0.0364,-0.0424,-0.0432,-0.0432,-0.0407,-0.0413,-0.0417,-0.044,-0.0446,-0.0425,-0.0421,-0.0417,-0.0338,-0.0415,-0.0411,-0.0409,-0.0261,-0.0258,-0.0256,0,0,0,0,0,0,-0.0427,-0.0418,-0.0362,-0.0399,-0.0395,-0.0427,-0.0398,-0.0406,-0.0401,-0.0416,-0.042,-0.0428,-0.0428,-0.0422,-0.0373,-0.0337,-0.041,-0.0406,-0.0263,-0.026,-0.0257,-0.0171,0,0,0,0,0,0,-0.0429,-0.0418,-0.0383,-0.0397,-0.0392,-0.0316,-0.0396,-0.0404,-0.0397,-0.0405,-0.0406,-0.0408,-0.0429,-0.0378,-0.0369,-0.0334,-0.0404,-0.0265,-0.0262,-0.0258,-0.0176,-0.0165,-0.0156,0,0,0,0,0,-0.0432,-0.0353,-0.038,-0.0372,-0.0346,-0.0313,-0.0312,-0.0348,-0.0393,-0.036,-0.0381,-0.0408,-0.035,-0.0372,-0.0362,-0.0326,-0.0267,-0.0263,-0.0259,-0.0181,-0.0168,-0.0157,0,0,0,0,0,0,-0.0353,-0.0354,-0.0385,-0.0305,-0.0306,-0.0326,-0.0292,-0.0328,-0.0318,-0.0326,-0.0366,-0.0365,-0.0317,-0.0321,-0.0345,-0.0273,-0.0318,-0.0312,-0.0262,-0.025,-0.024,-0.0224,-0.0401,0,0,0,0,0,-0.0325,-0.0282,-0.0294,-0.0232,-0.0227,-0.0262,-0.0252,-0.0274,-0.0276,-0.0277,-0.029,-0.0296,-0.0287,-0.027,-0.0257,-0.0192,-0.023,-0.0169,-0.0159,-0.015,-0.0131,-0.0174,-0.0167,-0.0242,-0.0242,-0.0242,0,0,-0.0279,-0.0274,-0.0249,-0.0216,-0.0224,-0.0181,-0.0261,-0.0224,-0.0196,-0.0268,-0.0223,-0.025,-0.0262,-0.0214,-0.0193,-0.0214,-0.0147,-0.0145,-0.0138,-0.0123,-0.0169,-0.0162,-0.0156,-0.0239,-0.024,-0.024,0,0,-0.0165,-0.0161,-0.0094,-0.0086,-0.0079,-0.0097,-0.0082,-0.0093,-0.0105,-0.0063,-0.0126,-0.0132,-0.0097,-0.0117,-0.0121,-0.0036,-0.0095,-0.0033,0.0039,-0.0003,0.0002,0.0006,-0.003,-0.003,-0.0026,-0.0026,-0.0026,0,-0.0112,-0.0035,-0.0065,-0.0005,0.0009,-0.0054,0.0013,0.0011,0.0012,0.0013,-0.0031,-0.0035,-0.0054,-0.0022,-0.0011,-0.0013,-0.0048,-0.0009,0.0008,0.0011,0.0014,-0.0024,-0.0025,-0.0021,-0.0022,-0.0022,-0.0022,0,0.0041,0.0093,0.0139,0.0176,0.0195,0.025,0.0224,0.024,0.0199,0.0175,0.0187,0.0138,0.0127,0.0113,0.0078,0.0096,0.006,0.0019,-0.0027,0.0026,-0.0017,-0.0019,-0.0014,-0.0016,-0.0017,-0.0019,0,0,0.0168,0.0232,0.0242,0.0273,0.029,0.0322,0.0368,0.0387,0.0413,0.0376,0.0397,0.0365,0.03,0.0291,0.023,0.0189,0.0163,0.0119,0.0115,0.0078,0.0073,0.0052,0.0046,0.0115,0.0115,0.0115,0.0035,0,0.0286,0.0418,0.0415,0.0524,0.0582,0.0534,0.0581,0.0582,0.0555,0.0566,0.048,0.0481,0.0381,0.0364,0.0309,0.0211,0.0161,0.0189,0.0034,0.003,-0.0002,0.0044,0.0069,0.0,0.0032,0.0031,0.0031,0,0.0426,0.049,0.0616,0.0673,0.0695,0.075,0.078,0.0818,0.0801,0.0776,0.0734,0.0655,0.0601,0.0492,0.0344,0.0365,0.0233,0.0136,0.0129,0.0081,0.0004,-0.0048,-0.0006,-0.0248,0.0026,0.0027,0.0027,0,0.0507,0.0621,0.0716,0.0741,0.0807,0.0849,0.0881,0.0886,0.0927,0.0905,0.0922,0.0818,0.0787,0.061,0.0398,0.037,0.0222,0.0155,0.0009,0.0006,-0.0015,-0.002,-0.0228,0.0038,0.0038,0.0039,0.0039,0,0.0621,0.07,0.0767,0.0824,0.0942,0.0946,0.1055,0.1063,0.1093,0.1169,0.1039,0.107,0.0811,0.0686,0.0463,0.0247,0.0268,0.004,-0.0009,0.0018,0.0017,-0.0229,-0.0346,0.0036,0.0036,0.0037,0.0037,0,0.0697,0.074,0.0859,0.0949,0.0988,0.107,0.118,0.1248,0.1265,0.136,0.1358,0.1268,0.1113,0.0838,0.0566,0.036,-0.0003,0.0035,0.0089,0.0048,-0.031,-0.042,-0.0656,-0.0778,-0.0124,-0.0125,-0.0126,0,0.0752,0.082,0.0949,0.102,0.1072,0.1192,0.1273,0.1328,0.1407,0.1496,0.1551,0.144,0.1403,0.1003,0.059,0.0209,-0.0034,-0.0023,-0.0079,-0.031,-0.0471,-0.0567,-0.066,-0.0077,-0.0077,-0.0077,-0.0077,0,0.0852,0.0887,0.0976,0.1126,0.1232,0.1365,0.1495,0.1591,0.1671,0.1772,0.1887,0.1877,0.1502,0.114,0.0603,0.0328,-0.0179,-0.004,-0.0297,-0.0453,-0.0552,-0.0698,-0.0049,-0.008,-0.0079,-0.0079,-0.0079,-0.0079,0.0916,0.0991,0.11,0.1247,0.1366,0.1538,0.1681,0.1819,0.2002,0.2202,0.2158,0.2225,0.1668,0.0952,0.0522,-0.0218,-0.023,-0.0432,-0.0546,-0.0623,-0.0741,-0.0088,-0.0167,-0.0167,-0.0168,-0.0168,-0.0168,0,0.1011,0.1091,0.1217,0.1398,0.1546,0.1603,0.1824,0.1985,0.2236,0.242,0.2547,0.2331,0.1652,0.0931,-0.0074,-0.0614,-0.0826,-0.0908,-0.1052,-0.1125,-0.0557,-0.0557,-0.0702,-0.0702,-0.0702,-0.0701,-0.0701,-0.0701,0.107,0.1203,0.1273,0.1534,0.1658,0.189,0.204,0.2281,0.2469,0.2736,0.2806,0.2794,0.2233,0.0442,-0.081,-0.1107,-0.1483,-0.1561,-0.1774,-0.14,-0.1365,-0.1332,-0.1363,-0.1674,-0.1675,-0.229,-0.2296,-0.23]}],[{"header":{"parameterUnit":"m.s-1","parameterCategory":2,"la1":30.2991,"la2":30.254,"lo1":-89.0895,"lo2":-89.0444,"dy":0.0017,"dx":0.0017,"nx":28,"ny":28,"refTime":"2024-06-21T03:00:00:Z","depth":"2","parameterNumber":2,"parameterNumberName":"U-component_of_CURRENTS"},"data":[0,0,0,0,0,0,0,0,0,0,0,0,0,0,0,0,0,0,0,0,0,0,0,0,0,0,0,0,0,0,0,0,0,0,0,0,0,0,0,0,0,0,0,0,0,0,0,0,0,0,0,0,0,0,0,0,0,0,0.2753,0.2754,0,0.2847,0.2848,0.2849,0.2859,0.2859,0.2858,0.2858,0.2872,0.2873,0.2874,0,0,0,0,0,0,0,0,0,0,0,0,0,0.2626,0.2627,0.2753,0.2754,0.2756,0.2847,0.2848,0.2849,0.2859,0.2859,0.2858,0.2857,0.2872,0.2873,0.2874,0,0,0,0,0,0,0,0,0,0,0,0,0,0.2691,0.2628,0.2752,0.2776,0.2779,0.2847,0.2848,0.2849,0.2859,0.2859,0.2858,0.2857,0.2871,0.2873,0.2874,0.2896,0,0,0.2878,0.2878,0,0,0,0,0,0,0,0,0.2688,0.2695,0.2771,0.2775,0.2779,0.2845,0.2809,0.2863,0.2859,0.2823,0.2858,0.2857,0.286,0.2862,0.2875,0.2896,0.2897,0.2878,0.2879,0.2879,0.2879,0,0,0,0,0,0,0,0.2683,0.2692,0.2785,0.2773,0.2778,0.2798,0.2805,0.2819,0.2839,0.2826,0.2829,0.2848,0.286,0.2874,0.2875,0.2897,0.2878,0.2879,0.288,0.288,0.2993,0.2995,0,0,0,0,0,0,0.2681,0.2687,0.2782,0.2788,0.2736,0.2801,0.2809,0.282,0.284,0.2845,0.2848,0.2848,0.2872,0.2874,0.2876,0.2936,0.2879,0.288,0.2881,0.2991,0.2993,0.2996,0,0,0,0,0,0,0.2677,0.2688,0.2778,0.2744,0.2758,0.2804,0.2817,0.2823,0.2858,0.2859,0.2861,0.2881,0.2871,0.2874,0.294,0.2935,0.2881,0.2882,0.2988,0.2991,0.2995,0.3035,0,0,0,0,0,0,0.2673,0.2686,0.2701,0.2744,0.276,0.2831,0.2818,0.2825,0.2872,0.2873,0.2887,0.2886,0.2871,0.2939,0.2942,0.2936,0.2883,0.2985,0.2989,0.2993,0.3031,0.304,0.3047,0,0,0,0,0,0.2668,0.27,0.27,0.2713,0.2776,0.2833,0.2843,0.2869,0.2875,0.2897,0.2933,0.2887,0.2965,0.2944,0.2946,0.2939,0.2983,0.2988,0.2993,0.3028,0.3038,0.3047,0,0,0,0,0,0,0.2653,0.2706,0.2707,0.2752,0.2792,0.2837,0.2863,0.2889,0.2935,0.2935,0.2937,0.2941,0.2983,0.298,0.2955,0.2989,0.2958,0.2964,0.2983,0.2993,0.3001,0.3026,0.2884,0,0,0,0,0,0.2656,0.2691,0.2737,0.2772,0.2788,0.2829,0.286,0.2879,0.2925,0.2944,0.2967,0.2986,0.3003,0.3017,0.3028,0.3068,0.3085,0.3062,0.307,0.3076,0.3103,0.3152,0.3167,0.3012,0.3012,0.3012,0,0,0.2657,0.2694,0.2712,0.2772,0.2795,0.2818,0.2844,0.2893,0.292,0.2938,0.2992,0.3016,0.3024,0.3058,0.3074,0.3057,0.313,0.3083,0.3088,0.3111,0.3159,0.3174,0.3187,0.3016,0.3015,0.3015,0,0,0.2664,0.2706,0.2722,0.2764,0.2815,0.2835,0.2855,0.2915,0.2948,0.3012,0.3025,0.3081,0.3104,0.3123,0.3127,0.3197,0.3169,0.3179,0.3238,0.3286,0.3299,0.331,0.3346,0.336,0.3183,0.3183,0.3183,0,0.2658,0.2691,0.2738,0.2766,0.2806,0.284,0.2866,0.29,0.2983,0.3035,0.3028,0.3131,0.313,0.3193,0.3215,0.3209,0.3238,0.3192,0.3295,0.3307,0.3318,0.3352,0.3367,0.3186,0.3185,0.3185,0.3185,0,0.2659,0.2702,0.2722,0.2754,0.2802,0.2842,0.2891,0.2959,0.3001,0.3036,0.3135,0.3176,0.3245,0.3236,0.3245,0.3326,0.332,0.3294,0.3264,0.3336,0.3367,0.3382,0.3189,0.3188,0.3188,0.3187,0,0,0.2608,0.2699,0.2708,0.274,0.2812,0.2849,0.292,0.3,0.3048,0.3129,0.3225,0.3273,0.332,0.3336,0.3359,0.3407,0.3497,0.3397,0.3398,0.3423,0.361,0.3573,0.3586,0.3492,0.3495,0.3498,0.3597,0,0.259,0.2642,0.27,0.2753,0.2786,0.2882,0.2943,0.3029,0.3085,0.3183,0.327,0.3341,0.3341,0.3395,0.3447,0.3494,0.3542,0.3473,0.3548,0.355,0.35,0.3604,0.3353,0.342,0.3612,0.3615,0.3616,0,0.2568,0.2617,0.2667,0.2786,0.2808,0.2843,0.2975,0.3038,0.3174,0.3251,0.3364,0.341,0.3543,0.3513,0.3643,0.3605,0.3625,0.3644,0.3647,0.3614,0.3543,0.3383,0.344,0.3642,0.364,0.3638,0.3636,0,0.2515,0.2604,0.2649,0.2688,0.2804,0.2873,0.294,0.306,0.3139,0.3308,0.3387,0.3516,0.3616,0.3677,0.3735,0.3703,0.3854,0.3797,0.3781,0.3777,0.3582,0.3557,0.3881,0.3881,0.3881,0.3881,0.388,0,0.2495,0.2532,0.2629,0.266,0.2731,0.2836,0.2922,0.3034,0.3185,0.3278,0.3414,0.3525,0.3666,0.3757,0.3782,0.385,0.3893,0.3831,0.3819,0.3589,0.3565,0.3766,0.3751,0.3884,0.3884,0.3883,0.3882,0,0.2436,0.2496,0.255,0.2667,0.2709,0.2761,0.292,0.2985,0.3145,0.329,0.3369,0.3575,0.3722,0.3811,0.3926,0.3913,0.3967,0.3964,0.3692,0.3647,0.3843,0.383,0.3972,0.3972,0.3972,0.3972,0.3972,0,0.2409,0.2428,0.2533,0.2568,0.262,0.2719,0.2798,0.297,0.3035,0.3305,0.3367,0.3582,0.3704,0.3874,0.392,0.398,0.3996,0.375,0.3644,0.3889,0.3862,0.3848,0.3835,0.3393,0.3388,0.3384,0.3381,0,0.2357,0.2387,0.2436,0.2501,0.2569,0.2648,0.2758,0.2813,0.3027,0.3147,0.3322,0.3451,0.3678,0.3669,0.3778,0.3762,0.3726,0.3674,0.4013,0.3416,0.3352,0.3322,0.3326,0.3346,0.3349,0.3352,0.3354,0.3355,0.2317,0.2315,0.2375,0.244,0.2501,0.2556,0.258,0.2701,0.2804,0.2961,0.3154,0.3273,0.3412,0.3472,0.3408,0.3383,0.362,0.3457,0.3464,0.3477,0.3399,0.334,0.3316,0.332,0.3322,0.3325,0.3327,0,0.2267,0.2287,0.232,0.2373,0.2382,0.2464,0.2537,0.2529,0.2593,0.2798,0.2921,0.281,0.2875,0.2989,0.2932,0.2974,0.2889,0.2833,0.2694,0.2736,0.2772,0.2651,0.2373,0.2369,0.2365,0.2362,0,0,0.2236,0.2238,0.2249,0.2249,0.2281,0.2253,0.2261,0.2273,0.236,0.2405,0.2479,0.2758,0.2943,0.2608,0.2608,0.2478,0.2563,0.2386,0.3173,0.3055,0.3084,0.3182,0.3052,0,0,0,0,0]},{"header":{"parameterUnit":"m.s-1","parameterCategory":2,"la1":30.2991,"la2":30.254,"lo1":-89.0895,"lo2":-89.0444,"dy":0.0017,"dx":0.0017,"nx":28,"ny":28,"refTime":"2024-06-21T03:00:00:Z","depth":"2","parameterNumber":3,"parameterNumberName":"V-component_of_CURRENTS"},"data":[0,0,0,0,0,0,0,0,0,0,0,0,0,0,0,0,0,0,0,0,0,0,0,0,0,0,0,0,0,0,0,0,0,0,0,0,0,0,0,0,0,0,0,0,0,0,0,0,0,0,0,0,0,0,0,0,0,0,-0.0375,-0.0377,0,-0.0462,-0.0462,-0.0463,-0.0527,-0.0529,-0.053,-0.0531,-0.0594,-0.0595,-0.0595,0,0,0,0,0,0,0,0,0,0,0,0,0,-0.0309,-0.0309,-0.0375,-0.0377,-0.0378,-0.0462,-0.0462,-0.0463,-0.0527,-0.0529,-0.053,-0.0531,-0.0594,-0.0594,-0.0595,0,0,0,0,0,0,0,0,0,0,0,0,0,-0.0355,-0.0309,-0.0375,-0.0425,-0.043,-0.0462,-0.0462,-0.0463,-0.0527,-0.0529,-0.053,-0.0532,-0.0593,-0.0594,-0.0595,-0.0569,0,0,-0.0598,-0.0599,0,0,0,0,0,0,0,0,-0.0352,-0.0357,-0.0416,-0.0421,-0.0428,-0.049,-0.0463,-0.0499,-0.0527,-0.0484,-0.0531,-0.0533,-0.0559,-0.0563,-0.0568,-0.0572,-0.0575,-0.0599,-0.0599,-0.06,-0.06,0,0,0,0,0,0,0,-0.0349,-0.0354,-0.0404,-0.0417,-0.0425,-0.0458,-0.0465,-0.047,-0.0507,-0.0488,-0.0494,-0.0512,-0.0562,-0.0567,-0.057,-0.0576,-0.0599,-0.0599,-0.06,-0.06,-0.0603,-0.0603,0,0,0,0,0,0,-0.0345,-0.035,-0.0401,-0.0407,-0.04,-0.0458,-0.0466,-0.0464,-0.0508,-0.0518,-0.0511,-0.0515,-0.0565,-0.0569,-0.0573,-0.0552,-0.06,-0.0601,-0.0601,-0.0604,-0.0603,-0.0603,0,0,0,0,0,0,-0.0343,-0.0348,-0.0398,-0.0387,-0.0396,-0.0458,-0.0455,-0.0465,-0.049,-0.0526,-0.0535,-0.0529,-0.0566,-0.0572,-0.0587,-0.0555,-0.0601,-0.0602,-0.0604,-0.0604,-0.0603,-0.0505,0,0,0,0,0,0,-0.034,-0.0346,-0.0353,-0.0385,-0.0397,-0.0416,-0.0454,-0.0466,-0.05,-0.0507,-0.0543,-0.055,-0.0568,-0.0586,-0.0588,-0.0557,-0.0603,-0.0605,-0.0604,-0.0603,-0.0509,-0.0501,-0.0494,0,0,0,0,0,-0.0337,-0.0328,-0.0352,-0.0359,-0.0399,-0.0417,-0.0424,-0.0471,-0.0499,-0.05,-0.0531,-0.055,-0.0582,-0.0586,-0.0589,-0.0557,-0.0606,-0.0604,-0.0603,-0.0512,-0.0503,-0.0494,0,0,0,0,0,0,-0.0303,-0.0335,-0.0362,-0.0364,-0.0394,-0.043,-0.0431,-0.0473,-0.0497,-0.0498,-0.0543,-0.055,-0.0547,-0.0574,-0.0578,-0.0559,-0.0596,-0.0596,-0.0526,-0.0517,-0.051,-0.0489,-0.0604,0,0,0,0,0,-0.0298,-0.0295,-0.0339,-0.034,-0.0345,-0.0391,-0.0409,-0.0437,-0.0464,-0.0478,-0.0508,-0.0532,-0.0539,-0.0549,-0.0557,-0.0549,-0.0581,-0.0533,-0.0526,-0.0519,-0.0507,-0.0531,-0.0524,-0.0599,-0.0599,-0.0599,0,0,-0.0284,-0.0303,-0.0303,-0.0333,-0.0347,-0.0343,-0.0403,-0.041,-0.0413,-0.0476,-0.0477,-0.0503,-0.0532,-0.0517,-0.0519,-0.054,-0.0518,-0.0518,-0.0511,-0.0503,-0.0529,-0.0521,-0.0515,-0.0598,-0.0598,-0.0598,0,0,-0.0232,-0.0263,-0.0236,-0.0258,-0.0285,-0.0309,-0.0315,-0.0349,-0.0368,-0.0378,-0.0416,-0.0432,-0.0452,-0.0462,-0.0471,-0.0432,-0.0474,-0.0436,-0.0382,-0.0405,-0.0398,-0.0393,-0.0431,-0.043,-0.0436,-0.0436,-0.0436,0,-0.0218,-0.0198,-0.0234,-0.0217,-0.0231,-0.029,-0.0269,-0.0287,-0.033,-0.0332,-0.0365,-0.0387,-0.042,-0.04,-0.0391,-0.0411,-0.044,-0.0408,-0.0393,-0.0388,-0.0385,-0.0425,-0.0425,-0.0431,-0.0432,-0.0432,-0.0433,0,-0.0143,-0.0144,-0.0124,-0.0123,-0.0138,-0.0128,-0.0163,-0.0168,-0.0203,-0.0233,-0.0229,-0.0272,-0.0287,-0.03,-0.0334,-0.0315,-0.0349,-0.0375,-0.0409,-0.0371,-0.0417,-0.0419,-0.0424,-0.0426,-0.0427,-0.0428,0,0,-0.0059,-0.0071,-0.0065,-0.006,-0.0092,-0.0087,-0.0074,-0.0082,-0.0069,-0.0108,-0.0087,-0.012,-0.0154,-0.0167,-0.0208,-0.0237,-0.0247,-0.0291,-0.0295,-0.0319,-0.0307,-0.0322,-0.0326,-0.0269,-0.0268,-0.0268,-0.0352,0,0.0009,0.0052,0.0025,0.0061,0.0079,0.003,0.005,0.0033,0.0003,0.0013,-0.0028,-0.0017,-0.01,-0.0091,-0.0134,-0.0208,-0.0246,-0.0223,-0.0351,-0.0355,-0.0363,-0.0326,-0.0286,-0.0355,-0.0354,-0.0355,-0.0355,0,0.0092,0.0106,0.0151,0.0151,0.016,0.0176,0.0189,0.0195,0.0185,0.0173,0.0158,0.0117,0.0092,0.0019,-0.0101,-0.0081,-0.0185,-0.0259,-0.0265,-0.031,-0.0371,-0.0394,-0.0359,-0.0359,-0.0358,-0.0358,-0.0358,0,0.017,0.0192,0.0228,0.0224,0.0225,0.0252,0.0263,0.0252,0.0283,0.0286,0.0317,0.0248,0.0252,0.0118,-0.0049,-0.007,-0.0189,-0.0239,-0.0354,-0.0358,-0.0364,-0.0368,-0.0325,-0.0325,-0.0324,-0.0324,-0.0324,0,0.0236,0.0266,0.0273,0.0293,0.036,0.0337,0.0407,0.0403,0.0438,0.0506,0.0417,0.046,0.0278,0.0183,0.0004,-0.0173,-0.0154,-0.0332,-0.037,-0.0331,-0.0331,-0.0367,-0.0371,-0.0327,-0.0327,-0.0326,-0.0325,0,0.0298,0.0296,0.0342,0.0371,0.0394,0.0443,0.0515,0.057,0.0587,0.068,0.0706,0.0636,0.0512,0.0301,0.0088,-0.0082,-0.0263,-0.0336,-0.0285,-0.0314,-0.0437,-0.0435,-0.0469,-0.047,-0.0471,-0.0472,-0.0472,0,0.0323,0.0353,0.0409,0.0455,0.0472,0.0549,0.0618,0.0652,0.0718,0.0792,0.0856,0.0778,0.0734,0.0404,0.0094,-0.0209,-0.0258,-0.037,-0.0403,-0.0413,-0.0447,-0.0444,-0.0441,-0.0386,-0.0385,-0.0385,-0.0385,0,0.0371,0.0391,0.0432,0.0534,0.061,0.0703,0.0802,0.0891,0.0959,0.1029,0.1104,0.1084,0.079,0.0493,0.0084,-0.0117,-0.0319,-0.0376,-0.0383,-0.0349,-0.0339,-0.0371,-0.037,-0.0384,-0.0384,-0.0384,-0.0384,-0.0384,0.0406,0.0444,0.0512,0.0611,0.0714,0.0861,0.0957,0.1074,0.1205,0.1337,0.129,0.1278,0.0931,0.0427,0.0052,-0.032,-0.0312,-0.044,-0.0438,-0.0438,-0.0406,-0.0397,-0.0449,-0.0449,-0.045,-0.045,-0.045,0,0.0447,0.0501,0.0591,0.0717,0.085,0.0899,0.1084,0.1188,0.1362,0.1473,0.1523,0.1242,0.0897,0.0508,-0.0052,-0.0401,-0.0423,-0.0493,-0.0455,-0.0452,-0.0451,-0.042,-0.0467,-0.0469,-0.047,-0.0471,0,0,0.046,0.0552,0.0603,0.0816,0.0925,0.1109,0.1226,0.1387,0.1503,0.1615,0.1628,0.1552,0.1066,0.0657,0.0173,-0.0148,-0.0212,-0.0198,-0.0143,-0.0038,-0.0033,-0.0378,-0.0321,0,0,0,0,0]}],[{"header":{"parameterUnit":"m.s-1","parameterCategory":2,"la1":30.2991,"la2":30.254,"lo1":-89.0895,"lo2":-89.0444,"dy":0.0017,"dx":0.0017,"nx":28,"ny":28,"refTime":"2024-06-21T03:00:00:Z","depth":"4","parameterNumber":2,"parameterNumberName":"U-component_of_CURRENTS"},"data":[0,0,0,0,0,0,0,0,0,0,0,0,0,0,0,0,0,0,0,0,0,0,0,0,0,0,0,0,0,0,0,0,0,0,0,0,0,0,0,0,0,0,0,0,0,0,0,0,0,0,0,0,0,0,0,0,0,0,0.1457,0.1458,0,0.1542,0.1543,0.1544,0.1619,0.162,0.1621,0.1622,0.1729,0.1731,0.1733,0,0,0,0,0,0,0,0,0,0,0,0,0,0.1323,0.1325,0.1457,0.1458,0.1459,0.1542,0.1543,0.1544,0.1619,0.162,0.1621,0.1622,0.1729,0.1731,0.1733,0,0,0,0,0,0,0,0,0,0,0,0,0,0.1391,0.1326,0.1456,0.1507,0.1513,0.1542,0.1543,0.1544,0.1619,0.162,0.1622,0.1623,0.1728,0.1731,0.1734,0.1723,0,0,0.1743,0.1744,0,0,0,0,0,0,0,0,0.1387,0.1396,0.1498,0.1504,0.151,0.1572,0.1536,0.1606,0.1618,0.1577,0.1622,0.1624,0.1678,0.1686,0.1697,0.1728,0.1733,0.1743,0.1745,0.1746,0.1747,0,0,0,0,0,0,0,0.1383,0.1392,0.1489,0.15,0.1507,0.1514,0.1525,0.1549,0.1618,0.1581,0.1587,0.1598,0.1682,0.1694,0.17,0.1734,0.1743,0.1746,0.1747,0.1749,0.1894,0.1896,0,0,0,0,0,0,0.1375,0.1388,0.1487,0.1492,0.1452,0.1515,0.1528,0.155,0.1618,0.163,0.1596,0.1601,0.1688,0.1696,0.1704,0.1812,0.1746,0.1749,0.175,0.1892,0.1894,0.1896,0,0,0,0,0,0,0.1372,0.1383,0.1483,0.1442,0.1456,0.1516,0.154,0.1551,0.16,0.1629,0.1642,0.1639,0.1689,0.17,0.1768,0.1812,0.175,0.1753,0.1889,0.1892,0.1895,0.1953,0,0,0,0,0,0,0.1368,0.1382,0.141,0.1442,0.1458,0.1532,0.1539,0.1552,0.1602,0.161,0.1669,0.1678,0.1691,0.1763,0.1771,0.1815,0.1755,0.1887,0.1891,0.1894,0.1949,0.1958,0.1966,0,0,0,0,0,0.1363,0.1396,0.1411,0.1423,0.149,0.1534,0.1544,0.1589,0.1603,0.1636,0.1679,0.1679,0.1794,0.1767,0.1776,0.1822,0.1885,0.1889,0.1894,0.1945,0.1956,0.1966,0,0,0,0,0,0,0.1355,0.1407,0.1424,0.1473,0.1514,0.1548,0.1585,0.1605,0.1662,0.1681,0.1702,0.1715,0.1791,0.1798,0.1768,0.1877,0.184,0.1847,0.1876,0.1887,0.1896,0.1894,0.1758,0,0,0,0,0,0.1363,0.1408,0.1446,0.1491,0.1513,0.1551,0.158,0.1611,0.1655,0.1683,0.1723,0.1767,0.1808,0.1842,0.1877,0.1933,0.195,0.197,0.1979,0.1986,0.1992,0.2059,0.2074,0.1912,0.1912,0.1912,0,0,0.137,0.1408,0.1433,0.1493,0.1529,0.157,0.1574,0.1632,0.1677,0.1684,0.1771,0.1799,0.1829,0.1899,0.1933,0.1917,0.2043,0.1992,0.1998,0.1999,0.2065,0.2081,0.2095,0.1915,0.1914,0.1914,0,0,0.1401,0.1445,0.1487,0.1524,0.1586,0.1609,0.1632,0.1687,0.173,0.1802,0.1819,0.1875,0.1944,0.1974,0.1994,0.2069,0.2083,0.209,0.2139,0.2204,0.2218,0.223,0.2278,0.2294,0.2098,0.2099,0.2099,0,0.1411,0.1469,0.1506,0.1554,0.159,0.163,0.1675,0.172,0.1795,0.1831,0.1846,0.1952,0.1977,0.2048,0.2082,0.2088,0.2127,0.2094,0.2215,0.2227,0.2239,0.2285,0.2302,0.2102,0.2102,0.2101,0.2101,0,0.1461,0.1517,0.1547,0.162,0.1662,0.1714,0.1767,0.1825,0.1875,0.1913,0.2008,0.2046,0.211,0.2128,0.2132,0.2226,0.2228,0.2214,0.2185,0.2259,0.2302,0.2319,0.2107,0.2106,0.2105,0.2104,0,0,0.1458,0.1562,0.1578,0.1617,0.1703,0.1738,0.182,0.1894,0.1954,0.2029,0.2109,0.2176,0.2202,0.2226,0.2242,0.2297,0.2409,0.2302,0.2304,0.2343,0.2562,0.2423,0.2427,0.2429,0.2432,0.2434,0.2562,0,0.1489,0.1578,0.1627,0.1712,0.1754,0.1816,0.1884,0.1959,0.2032,0.2122,0.2171,0.2258,0.2239,0.229,0.2341,0.2401,0.2456,0.2376,0.249,0.2493,0.2355,0.2442,0.2444,0.2574,0.2578,0.258,0.2582,0,0.1514,0.1574,0.166,0.1754,0.178,0.1841,0.1952,0.2022,0.214,0.2205,0.2291,0.2337,0.2438,0.241,0.2543,0.2503,0.2542,0.2571,0.2577,0.2435,0.2384,0.2485,0.2612,0.261,0.2607,0.2605,0.2604,0,0.1477,0.1591,0.166,0.1696,0.181,0.1868,0.1938,0.2052,0.2121,0.2276,0.235,0.2454,0.2542,0.2605,0.267,0.2634,0.2809,0.2758,0.2661,0.2651,0.2711,0.2696,0.2848,0.2848,0.2848,0.2848,0.2847,0,0.1471,0.1531,0.1656,0.1694,0.1775,0.1867,0.1968,0.2057,0.2193,0.228,0.2397,0.2481,0.2605,0.2704,0.2729,0.2755,0.2862,0.2685,0.2682,0.2733,0.2719,0.2723,0.2706,0.2852,0.2851,0.285,0.2849,0,0.1413,0.1502,0.158,0.1714,0.1759,0.1821,0.1969,0.2036,0.219,0.2316,0.2377,0.2552,0.2689,0.2777,0.2906,0.2828,0.2865,0.2844,0.2915,0.291,0.2645,0.2631,0.2736,0.2732,0.2729,0.2726,0.2724,0,0.1389,0.1427,0.157,0.1616,0.1684,0.1791,0.1857,0.2018,0.2092,0.2332,0.238,0.258,0.2676,0.2744,0.2848,0.2898,0.2858,0.285,0.2712,0.2651,0.2638,0.2629,0.2619,0.2719,0.2718,0.2717,0.2716,0,0.1328,0.1392,0.1454,0.1546,0.1628,0.1703,0.1821,0.1859,0.2052,0.2211,0.2336,0.2422,0.2576,0.2664,0.2739,0.2756,0.2837,0.2816,0.282,0.269,0.2632,0.262,0.2614,0.2706,0.2707,0.2708,0.2709,0,0.1274,0.1297,0.1384,0.1451,0.1545,0.1592,0.1666,0.1766,0.186,0.2118,0.2162,0.2377,0.2556,0.2595,0.266,0.268,0.262,0.2507,0.2526,0.254,0.2415,0.2309,0.2297,0,0,0,0,0,0.1206,0.1223,0.1281,0.1348,0.1433,0.1492,0.1628,0.1709,0.1894,0.1929,0.2039,0.217,0.2292,0.2404,0.2384,0.2569,0.2623,0.2534,0.25,0.2645,0.2658,0.2529,0,0,0,0,0,0,0.116,0.1209,0.1238,0.1244,0.1272,0.1355,0.1437,0.1567,0.1594,0.1796,0.1876,0.2036,0.2186,0.2284,0.2342,0.2375,0.2309,0.2667,0.2661,0.2638,0.2649,0.266,0.2531,0,0,0,0,0]},{"header":{"parameterUnit":"m.s-1","parameterCategory":2,"la1":30.2991,"la2":30.254,"lo1":-89.0895,"lo2":-89.0444,"dy":0.0017,"dx":0.0017,"nx":28,"ny":28,"refTime":"2024-06-21T03:00:00:Z","depth":"4","parameterNumber":3,"parameterNumberName":"V-component_of_CURRENTS"},"data":[0,0,0,0,0,0,0,0,0,0,0,0,0,0,0,0,0,0,0,0,0,0,0,0,0,0,0,0,0,0,0,0,0,0,0,0,0,0,0,0,0,0,0,0,0,0,0,0,0,0,0,0,0,0,0,0,0,0,0.015,0.0149,0,0.0043,0.0041,0.004,-0.0005,-0.0004,-0.0004,-0.0004,-0.0126,-0.0129,-0.0133,0,0,0,0,0,0,0,0,0,0,0,0,0,0.0272,0.027,0.015,0.0149,0.0147,0.0043,0.0041,0.0039,-0.0005,-0.0004,-0.0004,-0.0004,-0.0124,-0.0129,-0.0133,0,0,0,0,0,0,0,0,0,0,0,0,0,0.0196,0.0269,0.015,0.0114,0.011,0.0043,0.0041,0.0039,-0.0005,-0.0004,-0.0004,-0.0003,-0.0123,-0.0128,-0.0134,-0.0178,0,0,-0.015,-0.0152,0,0,0,0,0,0,0,0,0.02,0.0191,0.012,0.0116,0.0111,0.0034,0.0039,-0.0034,-0.0005,0.0037,-0.0004,-0.0003,-0.0073,-0.0082,-0.0106,-0.0184,-0.0189,-0.0151,-0.0154,-0.0156,-0.0158,0,0,0,0,0,0,0,0.0205,0.0195,0.0106,0.0119,0.0114,0.0088,0.0078,0.0025,-0.0021,0.0033,0.003,0.0021,-0.0076,-0.0101,-0.0109,-0.0191,-0.015,-0.0155,-0.0158,-0.0161,-0.0303,-0.0303,0,0,0,0,0,0,0.0223,0.02,0.0109,0.0103,0.016,0.0086,0.0074,0.0057,-0.0021,-0.0031,0.002,0.0019,-0.0092,-0.0103,-0.0114,-0.0158,-0.0156,-0.0161,-0.0164,-0.0302,-0.0303,-0.0303,0,0,0,0,0,0,0.0226,0.0216,0.0113,0.0151,0.0136,0.0083,0.0064,0.0055,0.003,-0.003,-0.0041,0.0005,-0.0092,-0.0106,-0.016,-0.0164,-0.0164,-0.0168,-0.0302,-0.0302,-0.0303,-0.0256,0,0,0,0,0,0,0.023,0.0217,0.0207,0.0152,0.0135,0.0071,0.0063,0.0052,0.0024,0.0021,-0.0047,-0.0057,-0.0092,-0.0151,-0.0165,-0.0171,-0.0173,-0.0301,-0.0302,-0.0303,-0.0257,-0.0255,-0.0253,0,0,0,0,0,0.0234,0.0211,0.0207,0.0195,0.0123,0.007,0.0058,0.0022,0.0023,0.0004,-0.0034,-0.0055,-0.0167,-0.0156,-0.0172,-0.018,-0.03,-0.0302,-0.0303,-0.0257,-0.0255,-0.0253,0,0,0,0,0,0,0.0246,0.0203,0.0197,0.0159,0.0121,0.0063,0.0038,0.0023,-0.0023,-0.0025,-0.007,-0.0085,-0.0133,-0.0166,-0.0153,-0.0224,-0.0235,-0.0239,-0.0195,-0.0193,-0.0192,-0.0166,-0.0177,0,0,0,0,0,0.0249,0.0227,0.0182,0.0152,0.0134,0.009,0.0065,0.0043,-0.0002,-0.0022,-0.0063,-0.0108,-0.0152,-0.0178,-0.0227,-0.0271,-0.0292,-0.0285,-0.0283,-0.0281,-0.0272,-0.0302,-0.0301,-0.0307,-0.0307,-0.0307,0,0,0.0245,0.0219,0.0206,0.0155,0.0122,0.0097,0.0075,0.0034,0.0019,-0.0029,-0.0068,-0.011,-0.0164,-0.0209,-0.0233,-0.0236,-0.0293,-0.0283,-0.0281,-0.0272,-0.0303,-0.0302,-0.0301,-0.0308,-0.0308,-0.0308,0,0,0.023,0.0204,0.0185,0.0159,0.0117,0.0092,0.0085,0.0032,0.0012,-0.0033,-0.0063,-0.0103,-0.0178,-0.0209,-0.0235,-0.0256,-0.0285,-0.0273,-0.0244,-0.0273,-0.0272,-0.0272,-0.0303,-0.0305,-0.0269,-0.0269,-0.0269,0,0.0227,0.0203,0.0169,0.0149,0.0138,0.0097,0.0084,0.0049,-0.0011,-0.002,-0.004,-0.0127,-0.0175,-0.0212,-0.0218,-0.025,-0.0271,-0.0244,-0.0269,-0.0269,-0.0269,-0.0301,-0.0304,-0.0267,-0.0267,-0.0268,-0.0268,0,0.0203,0.019,0.0173,0.0148,0.0128,0.0104,0.007,0.0047,0.0026,-0.0001,-0.0046,-0.011,-0.0152,-0.0179,-0.0208,-0.0231,-0.0247,-0.0263,-0.0266,-0.0265,-0.0299,-0.0304,-0.0264,-0.0265,-0.0265,-0.0266,0,0,0.0187,0.0164,0.0162,0.0171,0.0133,0.012,0.0097,0.0071,0.0073,0.001,0.0007,-0.0075,-0.0097,-0.0127,-0.0169,-0.0197,-0.0225,-0.0225,-0.0228,-0.0243,-0.029,-0.0283,-0.0287,-0.0241,-0.0242,-0.0242,-0.0314,0,0.0183,0.0172,0.0159,0.0162,0.0159,0.0139,0.013,0.0106,0.0078,0.006,0.0001,-0.0029,-0.0082,-0.0095,-0.0134,-0.0199,-0.0234,-0.0204,-0.03,-0.0303,-0.0286,-0.0291,-0.0243,-0.0318,-0.0319,-0.032,-0.032,0,0.017,0.0172,0.0179,0.0199,0.0196,0.0195,0.0202,0.0189,0.0154,0.0135,0.0096,0.0048,-0.0006,-0.0048,-0.0157,-0.0134,-0.0206,-0.0261,-0.0266,-0.0275,-0.0304,-0.0322,-0.0329,-0.0328,-0.0327,-0.0327,-0.0326,0,0.0196,0.0193,0.0214,0.0215,0.0217,0.023,0.0234,0.0214,0.0226,0.019,0.0196,0.0111,0.0087,-0.0018,-0.0139,-0.0147,-0.0255,-0.0282,-0.0348,-0.0349,-0.0354,-0.0353,-0.0358,-0.0358,-0.0358,-0.0358,-0.0358,0,0.0204,0.022,0.0233,0.0245,0.0284,0.0274,0.0309,0.03,0.0303,0.0334,0.0246,0.0248,0.0096,0.0012,-0.0113,-0.0238,-0.024,-0.034,-0.0364,-0.0335,-0.0331,-0.0357,-0.0356,-0.0361,-0.036,-0.036,-0.0359,0,0.0224,0.0227,0.0259,0.0282,0.0298,0.0329,0.0376,0.0404,0.0396,0.0437,0.0435,0.0357,0.0247,0.0086,-0.0081,-0.0186,-0.0319,-0.0366,-0.0318,-0.0339,-0.0404,-0.04,-0.0447,-0.0447,-0.0448,-0.0448,-0.0448,0,0.023,0.0247,0.0298,0.0333,0.0349,0.0395,0.0435,0.0451,0.0493,0.0508,0.054,0.0449,0.0374,0.0154,-0.0036,-0.0277,-0.0315,-0.0392,-0.0408,-0.0392,-0.0412,-0.0407,-0.0403,-0.0448,-0.0448,-0.0449,-0.0449,0,0.0249,0.027,0.0304,0.0379,0.0434,0.0498,0.056,0.06,0.0633,0.0631,0.0642,0.0517,0.0394,0.0186,-0.0002,-0.0179,-0.0347,-0.0395,-0.0397,-0.0412,-0.0395,-0.0413,-0.0408,-0.0449,-0.0449,-0.0449,-0.0449,0,0.0267,0.0298,0.0351,0.0421,0.0501,0.0585,0.0608,0.0668,0.0707,0.0729,0.0731,0.0586,0.0499,0.0237,0.0065,-0.011,-0.0166,-0.0231,-0.0242,-0.0243,-0.0172,-0.0119,-0.0103,0,0,0,0,0,0.0273,0.0316,0.039,0.0471,0.0559,0.0608,0.0691,0.0711,0.0746,0.0777,0.0761,0.0649,0.0404,0.0289,0.0118,0.0026,-0.0221,-0.0183,-0.0307,-0.0454,-0.0453,-0.0404,0,0,0,0,0,0,0.0272,0.0339,0.0388,0.0509,0.0575,0.0676,0.0732,0.0758,0.077,0.078,0.0656,0.0601,0.0356,0.0511,0.0117,0.006,-0.0044,-0.03,-0.0304,-0.0454,-0.0454,-0.0453,-0.0402,0,0,0,0,0]}]]